This is the latest recevied weather packets stored in our database for station/object DO3HUM-5. If no packets are shown the sender has not sent any weather packets the latest 10 day(s).
| Time | Temp. | Humidity | Pressure | Rain* | Wind** | Luminosity | Snow |
|---|---|---|---|---|---|---|---|
| 1777546253 | 15.56° C | 38% | 1039.7 hPa | 0 mm | - | - | - |
| 1777545650 | 15.56° C | 37% | 1039.8 hPa | 0 mm | - | - | - |
| 1777545049 | 15° C | 38% | 1039.9 hPa | 0 mm | - | - | - |
| 1777544446 | 15.56° C | 38% | 1039.9 hPa | 0 mm | - | - | - |
| 1777543842 | 15.56° C | 37% | 1039.9 hPa | 0 mm | - | - | - |
| 1777543239 | 15° C | 39% | 1039.8 hPa | 0 mm | - | - | - |
| 1777542636 | 15.56° C | 37% | 1039.9 hPa | 0 mm | - | - | - |
| 1777542033 | 14.44° C | 38% | 1040 hPa | 0 mm | - | - | - |
| 1777541430 | 13.89° C | 39% | 1040.1 hPa | 0 mm | - | - | - |
| 1777540827 | 14.44° C | 37% | 1040.1 hPa | 0 mm | - | - | - |
| 1777540225 | 13.89° C | 35% | 1040.2 hPa | 0 mm | - | - | - |
| 1777539624 | 15° C | 35% | 1040.2 hPa | 0 mm | - | - | - |
| 1777539016 | 13.33° C | 37% | 1040.5 hPa | 0 mm | - | - | - |
| 1777538473 | 13.89° C | 37% | 1040.4 hPa | 0 mm | - | - | - |
| 1777537870 | 13.33° C | 37% | 1040.3 hPa | 0 mm | - | - | - |
| 1777537267 | 13.33° C | 38% | 1040.5 hPa | 0 mm | - | - | - |
| 1777536665 | 12.78° C | 37% | 1040.5 hPa | 0 mm | - | - | - |
| 1777536062 | 13.33° C | 37% | 1040.6 hPa | 0 mm | - | - | - |
| 1777535461 | 11.67° C | 42% | 1040.6 hPa | 0 mm | - | - | - |
| 1777534854 | 11.67° C | 41% | 1040.5 hPa | 0 mm | - | - | - |
| 1777534251 | 11.67° C | 40% | 1040.5 hPa | 0 mm | - | - | - |
| 1777533648 | 10.56° C | 41% | 1040.4 hPa | 0 mm | - | - | - |
| 1777533045 | 10° C | 48% | 1040.5 hPa | 0 mm | - | - | - |
| 1777532443 | 10° C | 49% | 1040.5 hPa | 0 mm | - | - | - |
| 1777531841 | 10° C | 52% | 1040.4 hPa | 0 mm | - | - | - |
* Rain latest hour (hover to see other rain measurements)
** Current wind speed in m/s (hover to see current wind gust speed)